Weather History for Augusta Bush, GA

Change the Weather History Date:

Monday, January 23, 2012

  Actual Average Record
Temperature  
Mean Temperature 49 °F 46 °F  
Max Temperature 55 °F 58 °F 78 °F (1932)
Min Temperature 42 °F 33 °F 16 °F (1960)
Degree Days  
Heating Degree Days 16 19  
Month to date heating degree days 379 458  
Since 1 July heating degree days 1255 1433  
Cooling Degree Days 0 0  
Month to date cooling degree days 0 0  
Year to date cooling degree days 0 0  
Moisture  
Dew Point 48 °F    
Average Humidity 96    
Maximum Humidity 100    
Minimum Humidity 92    
Precipitation  
Precipitation 0.01 in 0.13 in 1.67 in (1885)
Month to date precipitation 1.28 2.86  
Year to date precipitation 1.28 2.86  
Sea Level Pressure  
Sea Level Pressure 30.12 in    
Wind  
Wind Speed 3 mph (ESE)    
Max Wind Speed 10 mph    
Max Gust Speed 12 mph    
Visibility 1 miles    
Events Fog , Rain    
T = Trace of Precipitation, MM = Missing Value Source: NWS Daily Summary

Daily Weather History Graph

Daily Weather History Graph

Search for Another Location

Airport:

Trip Planner

Search our weather history database for the weather conditions in past years. The results will help you decide how hot, cold, wet, or windy it might be!

Date:

Astronomy

Jan. 23, 2012 Rise Set
Actual Time 7:29 AM EST 5:50 PM EST
Civil Twilight 7:02 AM EST 6:16 PM EST
Nautical Twilight 6:32 AM EST 6:47 PM EST
Astronomical Twilight 6:02 AM EST 7:16 PM EST
Moon 7:27 AM EST (1/23) 6:32 PM EST (1/23)
Length of Visible Light 11h 14m
Length of Day
10h 21m
Waxing Crescent, 0% of the Moon is Illuminated
Jan 23
Waxing Crescent
Jan 30
First Quarter
Feb 7
Full
Feb 14
Last Quarter
Feb 21
New

Hourly Weather History & Observations

Time (EST) Temp. Windchill Dew Point Humidity Pressure Visibility Wind Dir Wind Speed Gust Speed Precip Events Conditions
12:33 AM 42.8 °F 38.6 °F 41.0 °F 93% 30.24 in 2.5 mi East 6.9 mph - N/A   Overcast
12:53 AM 42.1 °F 38.4 °F 41.0 °F 96% 30.25 in 2.0 mi East 5.8 mph - N/A   Overcast
1:01 AM 42.8 °F 39.3 °F 41.0 °F 93% 30.24 in 1.8 mi ESE 5.8 mph - N/A   Overcast
1:53 AM 42.1 °F 38.4 °F 41.0 °F 96% 30.23 in 1.5 mi East 5.8 mph - 0.00 in Rain Light Rain
2:09 AM 42.8 °F 40.1 °F 42.8 °F 100% 30.23 in 2.5 mi East 4.6 mph - 0.00 in Rain Light Rain
2:16 AM 42.8 °F 41.1 °F 42.8 °F 100% 30.23 in 3.0 mi East 3.5 mph - 0.00 in   Overcast
2:27 AM 42.8 °F 40.1 °F 42.8 °F 100% 30.22 in 2.5 mi East 4.6 mph - 0.00 in   Overcast
2:41 AM 42.8 °F 39.3 °F 42.8 °F 100% 30.20 in 1.5 mi East 5.8 mph - 0.00 in Rain Light Rain
2:53 AM 42.1 °F 38.4 °F 42.1 °F 100% 30.19 in 2.0 mi East 5.8 mph - 0.00 in Rain Light Rain
3:18 AM 42.8 °F 39.3 °F 41.0 °F 93% 30.18 in 3.0 mi East 5.8 mph - 0.00 in   Overcast
3:53 AM 42.1 °F 38.4 °F 41.0 °F 96% 30.15 in 6.0 mi ESE 5.8 mph - 0.00 in   Overcast
4:53 AM 43.0 °F 40.3 °F 42.1 °F 97% 30.16 in 4.0 mi ESE 4.6 mph - N/A   Overcast
5:11 AM 42.8 °F - 42.8 °F 100% 30.15 in 2.5 mi Calm Calm - N/A   Overcast
5:29 AM 42.8 °F - 42.8 °F 100% 30.18 in 1.8 mi Calm Calm - N/A   Overcast
5:53 AM 43.0 °F 41.3 °F 42.1 °F 97% 30.18 in 1.0 mi NE 3.5 mph - N/A   Overcast
6:53 AM 42.8 °F 40.1 °F 42.8 °F 100% 30.17 in 1.0 mi East 4.6 mph - N/A   Overcast
7:53 AM 43.0 °F - 43.0 °F 100% 30.18 in 1.0 mi Calm Calm - N/A   Overcast
8:00 AM 42.8 °F 41.1 °F 42.8 °F 100% 30.17 in 0.8 mi ESE 3.5 mph - N/A   Overcast
8:53 AM 44.1 °F 41.5 °F 43.0 °F 96% 30.15 in 0.5 mi ESE 4.6 mph - N/A Fog Fog
9:25 AM 44.6 °F 40.7 °F 44.6 °F 100% 30.15 in 1.0 mi SSE 6.9 mph - N/A   Overcast
9:53 AM 45.0 °F 41.8 °F 44.1 °F 97% 30.16 in 0.8 mi SSE 5.8 mph - N/A   Overcast
10:07 AM 44.6 °F 42.2 °F 44.6 °F 100% 30.15 in 1.0 mi SE 4.6 mph - N/A   Overcast
10:15 AM 46.4 °F 43.5 °F 44.6 °F 93% 30.15 in 0.8 mi SE 5.8 mph - N/A   Overcast
10:53 AM 46.4 °F 44.3 °F 46.4 °F 100% 30.14 in 0.8 mi ESE 4.6 mph - N/A   Overcast
11:53 AM 48.0 °F - 48.0 °F 100% 30.14 in 0.5 mi Calm Calm - N/A Fog Fog
12:26 PM 48.2 °F - 48.2 °F 100% 30.11 in 0.2 mi Calm Calm - N/A Fog Fog
12:53 PM 48.2 °F - 48.2 °F 100% 30.09 in 0.2 mi North 6.9 mph - N/A Fog Fog
1:33 PM 50.0 °F - 48.2 °F 94% 30.08 in 0.5 mi Calm Calm - 0.00 in Fog Fog
1:36 PM 50.0 °F - 50.0 °F 100% 30.08 in 0.2 mi Calm Calm - 0.00 in Fog Fog
1:53 PM 50.0 °F - 50.0 °F 100% 30.08 in 0.2 mi Calm Calm - 0.00 in Fog Fog
2:53 PM 52.0 °F - 52.0 °F 100% 30.06 in 0.2 mi SSE 3.5 mph - 0.01 in Fog Fog
3:53 PM 53.1 °F - 53.1 °F 100% 30.04 in 0.2 mi South 3.5 mph - 0.00 in Fog Fog
4:26 PM 53.6 °F - 53.6 °F 100% 30.02 in 1.0 mi Calm Calm - N/A   Overcast
4:53 PM 54.0 °F - 54.0 °F 100% 30.04 in 1.0 mi Calm Calm - N/A   Overcast
5:53 PM 55.0 °F - 54.0 °F 96% 30.04 in 1.0 mi Calm Calm - N/A   Overcast
6:53 PM 54.0 °F - 54.0 °F 100% 30.05 in 1.0 mi Calm Calm - N/A   Mist
7:00 PM 53.6 °F - 53.6 °F 100% 30.05 in 0.2 mi Calm Calm - N/A Fog Fog
7:37 PM 53.6 °F - 53.6 °F 100% 30.05 in 0.5 mi Calm Calm - N/A Fog Fog
7:53 PM 54.0 °F - 54.0 °F 100% 30.05 in 0.5 mi Calm Calm - N/A Fog Fog
8:14 PM 53.6 °F - 53.6 °F 100% 30.04 in 1.8 mi Calm Calm - 0.00 in Rain Light Rain
8:49 PM 53.6 °F - 53.6 °F 100% 30.05 in 1.0 mi NNW 3.5 mph - 0.00 in   Overcast
8:53 PM 54.0 °F - 53.1 °F 97% 30.05 in 1.0 mi NNW 3.5 mph - 0.00 in   Overcast
9:53 PM 53.1 °F - 53.1 °F 100% 30.05 in 1.2 mi Calm Calm - 0.00 in   Overcast
10:29 PM 53.6 °F - 53.6 °F 100% 30.05 in 2.0 mi Calm Calm - N/A   Overcast
10:44 PM 53.6 °F - 53.6 °F 100% 30.05 in 1.5 mi Calm Calm - N/A   Mostly Cloudy
10:53 PM 53.1 °F - 53.1 °F 100% 30.05 in 1.2 mi Calm Calm - N/A   Overcast
11:03 PM 53.6 °F - 53.6 °F 100% 30.04 in 1.5 mi Calm Calm - N/A   Overcast
11:15 PM 51.8 °F - 51.8 °F 100% 30.04 in 0.2 mi Calm Calm - N/A Fog Fog
11:53 PM 52.0 °F - 52.0 °F 100% 30.04 in 0.2 mi Calm Calm - N/A Fog Fog